COSMOS 1275 DEB, 42111

Orbit data source: Space-Track

COSMOS 1275 DEB, 42111 is space debris in LEO originally from a launch on Thu, 04 Jun 1981 UTC launched from the Plesetsk Missile And Space Complex (PKMTR). Debris objects in space refer to the collection of defunct objects orbiting the Earth. Examples of debris include non-operational satellites, rocket bodies, and fragments generated from explosions, collisions, or faulty payload assembly.

Loading next visibility...
Identifier
42111, 1981-053PX
Orbit
LEO
Country
Flag of CISCIS
Related business
Manufacturer
Unknown
Mission
Spacecraft
Bus & Motor
Unknown
Mass
Unknown
Launch date (UTC)
1981-06-04 (45 years ago)
Launch vehicle
Unknown
Launch site
Plesetsk Missile And Space Complex (PKMTR)
Object type
Payload
Rocket body
Debris
Shape & HBR
Unknown shape, 0.1 m
Radar Cross Section
Small (<0.1 m²)

Expand to show TLE details & history
Last TLE update: 1 day ago

TLE from 1 day ago
0 COSMOS 1275 DEB
1 42111U 81053PX  26037.36474294  .00007859  00000-0  28749-2 0  9994
2 42111  82.8062  20.6803 0041541  23.7944 336.5152 14.32342396631046
Epoch: 2026-02-06T08:45Z
TLE epoch observation values (Epoch: 2026-02-06T08:45:13.790Z)
Latitude
0.00003°
Longitude
112.86917°
Altitude
759.615 km
Speed
7.489 km/s
True Right ascension
01h 22m 43s
True Declination
0° 00' 00"
Sunlit
Object was in daylight at epoch
Visualization orbit readout
Latitude
Unknown
Longitude
Unknown
Altitude
Unknown
Speed
Unknown
Apparent Right ascension
Unknown
Apparent Declination
Unknown
Sunlit
N/A
Visualization observer readout
Local Sidereal Time
14:20:01
Azimuth
Unknown
Elevation
Unknown
Doppler factor
Unknown
Orbital elements
Apogee altitude
810.727 km
Perigee altitude
751.247 km
Semi-major axis
7,159.124 km
Eccentricity
0.00415
Inclination
82.8062°
RAAN
20.6803°
Arg. of periapsis
23.7944°
True anomaly
336.32459°
Mean anomaly
336.5152°
Eccentric anomaly
336.41999°
Mean motion
3.58305 °/min
Orbital period
100.47 mins
BSTAR
0.0028749
Loading maneuver chart data...
Computing Atmospheric mass density...
Loading historical data...
Loading historical data...
Loading historical data...
Loading historical data...
Loading historical data...
Loading historical data...
Loading historical data...

Documentation

Showing up to 5 results
|